Overview Statistics Trail Chart Weather Telemetry Raw packets
 

This is the latest recevied weather packets stored in our database for station/object OM6ACB-6. If no packets are shown the sender has not sent any weather packets the latest 10 day(s).

<< 46 47 48 49 50 51 52 >>
Time Temp. Humidity Pressure Rain* Wind** Luminosity Snow
1787950249 16.67° C 24% 1019.2 hPa 0 mm - - -
1787949648 16.67° C 24% 1019.5 hPa 0 mm - - -
1787949048 17.22° C 24% 1019.1 hPa 0 mm - - -
1787948448 15.56° C 25% 1019.2 hPa 0 mm - - -
1787947848 17.78° C 24% 1019.4 hPa 0 mm - - -
1787947247 16.11° C 24% 1019.2 hPa 0 mm - - -
1787946647 16.67° C 24% 1019.3 hPa 0 mm - - -
1787946047 17.78° C 24% 1019.4 hPa 0 mm - - -
1787945446 17.78° C 24% 1019.4 hPa 0 mm - - -
1787944846 17.78° C 24% 1019.5 hPa 0 mm - - -
1787944246 17.78° C 24% 1019.6 hPa 0 mm - - -
1787943646 18.33° C 23% 1019.6 hPa 0 mm - - -
1787943045 18.89° C 23% 1019.5 hPa 0 mm - - -
1787942445 18.89° C 23% 1019.5 hPa 0 mm - - -
1787941845 19.44° C 23% 1019.4 hPa 0 mm - - -
1787941244 19.44° C 23% 1019.4 hPa 0 mm - - -
1787940644 20° C 22% 1019.5 hPa 0 mm - - -
1787940044 20° C 22% 1019.4 hPa 0 mm - - -
1787939444 22.22° C 21% 1019.6 hPa 0 mm - - -
1787938843 22.78° C 21% 1019.9 hPa 0 mm - - -
1787938243 22.78° C 21% 1019.9 hPa 0 mm - - -
1787937643 23.33° C 21% 1020 hPa 0 mm - - -
1787937042 23.89° C 21% 1020.1 hPa 0 mm - - -
1787936442 24.44° C 20% 1020.1 hPa 0 mm - - -
1787935842 25° C 20% 1020 hPa 0 mm - - -

* Rain latest hour (hover to see other rain measurements)
** Current wind speed in m/s (hover to see current wind gust speed)